When you browse on this site, cookies collect data to enhance your experience and personalize the content and advertising you see.
Visit our Privacy Policy to learn more. By continuing to use the site, you agree to this use of cookies and data.
  • En España
  • Lista de países
  • Para 7 días
  • Temperatura del agua
  • Mapa Satelital
  • El tiempo en el mapa
  • Informadores
  • user-avatar
    Iniciar sesión

    Tiempo cada hora Medulin

    Hoy, 18 Junio, Martes

    Tiempo Temperatura Precipitaciones Viento Presión Humedad
    00:00 +22°C° 0 mm 3 mps 757 mmHg 74%
    01:00 +23°C° 0 mm 2 mps 757 mmHg 74%
    02:00 +23°C° 0.1 mm 2 mps 757 mmHg 74%
    03:00 +21°C° 0.1 mm 2 mps 757 mmHg 74%
    04:00 +21°C° 0.1 mm 3 mps 756 mmHg 74%
    05:00 +23°C° 0 mm 2 mps 757 mmHg 71%
    06:00 +25°C° 0 mm 2 mps 757 mmHg 67%
    07:00 +26°C° 0 mm 2 mps 757 mmHg 64%
    08:00 +27°C° 0 mm 1 mps 757 mmHg 60%
    09:00 +28°C° 0 mm 1 mps 757 mmHg 56%
    10:00 +30°C° 0 mm 1 mps 757 mmHg 53%
    11:00 +30°C° 0 mm 2 mps 757 mmHg 53%
    12:00 +30°C° 0 mm 2 mps 757 mmHg 53%
    13:00 +30°C° 0 mm 3 mps 757 mmHg 53%
    14:00 +30°C° 0 mm 3 mps 757 mmHg 54%
    15:00 +30°C° 0 mm 3 mps 756 mmHg 54%
    16:00 +30°C° 0 mm 3 mps 756 mmHg 55%
    17:00 +29°C° 0 mm 2 mps 756 mmHg 60%
    18:00 +27°C° 0 mm 2 mps 756 mmHg 65%
    19:00 +26°C° 0 mm 1 mps 756 mmHg 71%
    20:00 +25°C° 0 mm 1 mps 756 mmHg 73%
    21:00 +24°C° 0 mm 1 mps 756 mmHg 76%
    22:00 +23°C° 0 mm 1 mps 756 mmHg 78%
    23:00 +23°C° 0 mm 1 mps 756 mmHg 79%

    Mañana, 19 Junio, Miércoles

    Tiempo Temperatura Precipitaciones Viento Presión Humedad
    00:00 +22°C° 0 mm 1 mps 756 mmHg 80%
    01:00 +22°C° 0 mm 1 mps 756 mmHg 81%
    02:00 +22°C° 0 mm 1 mps 756 mmHg 81%
    03:00 +21°C° 0 mm 1 mps 756 mmHg 81%
    04:00 +21°C° 0 mm 1 mps 756 mmHg 81%
    05:00 +23°C° 0 mm 1 mps 756 mmHg 75%
    06:00 +24°C° 0 mm 1 mps 756 mmHg 68%
    07:00 +24°C° 0 mm 0 mps 756 mmHg 62%
    08:00 +27°C° 0 mm 1 mps 756 mmHg 57%
    09:00 +28°C° 0 mm 1 mps 756 mmHg 52%
    10:00 +29°C° 0 mm 2 mps 756 mmHg 47%
    11:00 +30°C° 0 mm 2 mps 756 mmHg 48%
    12:00 +30°C° 0 mm 3 mps 756 mmHg 48%
    13:00 +30°C° 0 mm 3 mps 755 mmHg 49%
    14:00 +30°C° 0 mm 3 mps 755 mmHg 51%
    15:00 +30°C° 0 mm 3 mps 755 mmHg 52%
    16:00 +29°C° 0 mm 3 mps 755 mmHg 54%
    17:00 +28°C° 0 mm 3 mps 755 mmHg 60%
    18:00 +27°C° 0 mm 2 mps 755 mmHg 65%
    19:00 +26°C° 0 mm 2 mps 755 mmHg 70%
    20:00 +25°C° 0 mm 1 mps 755 mmHg 72%
    21:00 +24°C° 0 mm 1 mps 755 mmHg 73%
    22:00 +23°C° 0 mm 1 mps 756 mmHg 74%
    23:00 +22°C° 0 mm 1 mps 755 mmHg 75%

    Pasado mañana, 20 Junio, Jueves

    Tiempo Temperatura Precipitaciones Viento Presión Humedad
    00:00 +22°C° 0 mm 1 mps 755 mmHg 75%
    01:00 +22°C° 0 mm 1 mps 755 mmHg 76%
    02:00 +21°C° 0 mm 1 mps 755 mmHg 75%
    03:00 +21°C° 0 mm 1 mps 755 mmHg 75%
    04:00 +21°C° 0 mm 1 mps 755 mmHg 74%
    05:00 +23°C° 0 mm 1 mps 755 mmHg 69%
    06:00 +25°C° 0 mm 1 mps 755 mmHg 64%
    07:00 +26°C° 0 mm 1 mps 755 mmHg 58%
    08:00 +28°C° 0 mm 1 mps 755 mmHg 55%
    09:00 +29°C° 0 mm 2 mps 755 mmHg 51%
    10:00 +30°C° 0 mm 2 mps 755 mmHg 47%
    11:00 +30°C° 0 mm 3 mps 755 mmHg 49%
    12:00 +30°C° 0 mm 3 mps 755 mmHg 50%
    13:00 +32°C° 0 mm 4 mps 755 mmHg 51%
    14:00 +30°C° 0 mm 4 mps 755 mmHg 52%
    15:00 +30°C° 0 mm 3 mps 755 mmHg 52%
    16:00 +30°C° 0 mm 3 mps 755 mmHg 53%
    17:00 +29°C° 0 mm 3 mps 755 mmHg 58%
    18:00 +28°C° 0 mm 2 mps 755 mmHg 63%
    19:00 +26°C° 0 mm 1 mps 755 mmHg 69%
    20:00 +25°C° 0 mm 1 mps 755 mmHg 71%
    21:00 +24°C° 0 mm 1 mps 755 mmHg 74%
    22:00 +23°C° 0 mm 1 mps 756 mmHg 77%
    23:00 +23°C° 0 mm 1 mps 756 mmHg 76%

    21 Junio, Viernes

    Tiempo Temperatura Precipitaciones Viento Presión Humedad
    00:00 +23°C° 0 mm 1 mps 756 mmHg 76%
    01:00 +22°C° 0 mm 1 mps 756 mmHg 75%
    02:00 +22°C° 0 mm 1 mps 756 mmHg 73%
    03:00 +22°C° 0 mm 1 mps 755 mmHg 72%
    04:00 +22°C° 0 mm 1 mps 755 mmHg 70%
    05:00 +23°C° 0 mm 1 mps 756 mmHg 65%
    06:00 +25°C° 0 mm 1 mps 756 mmHg 59%
    07:00 +27°C° 0 mm 1 mps 756 mmHg 53%
    08:00 +28°C° 0 mm 1 mps 757 mmHg 49%
    09:00 +30°C° 0 mm 1 mps 757 mmHg 45%
    10:00 +31°C° 0 mm 2 mps 757 mmHg 41%
    11:00 +31°C° 0 mm 2 mps 757 mmHg 40%
    12:00 +32°C° 0 mm 2 mps 757 mmHg 40%
    13:00 +33°C° 0 mm 3 mps 756 mmHg 39%
    14:00 +33°C° 0 mm 3 mps 756 mmHg 39%
    15:00 +32°C° 0 mm 2 mps 756 mmHg 39%
    16:00 +32°C° 0 mm 2 mps 756 mmHg 38%
    17:00 +30°C° 0 mm 2 mps 756 mmHg 44%
    18:00 +29°C° 0 mm 2 mps 756 mmHg 50%
    19:00 +27°C° 0 mm 2 mps 756 mmHg 56%
    20:00 +26°C° 0 mm 2 mps 756 mmHg 56%
    21:00 +25°C° 0 mm 2 mps 757 mmHg 57%
    22:00 +24°C° 0 mm 2 mps 757 mmHg 57%
    23:00 +24°C° 0 mm 1 mps 757 mmHg 55%

    22 Junio, Sábado

    Tiempo Temperatura Precipitaciones Viento Presión Humedad
    00:00 +24°C° 0 mm 1 mps 757 mmHg 54%
    01:00 +24°C° 0 mm 1 mps 757 mmHg 52%
    02:00 +23°C° 0 mm 1 mps 757 mmHg 50%
    03:00 +23°C° 0 mm 1 mps 756 mmHg 48%
    04:00 +23°C° 0 mm 2 mps 756 mmHg 46%
    05:00 +25°C° 0 mm 2 mps 757 mmHg 45%
    06:00 +26°C° 0 mm 2 mps 757 mmHg 45%
    07:00 +28°C° 0 mm 2 mps 757 mmHg 44%
    08:00 +29°C° 0 mm 2 mps 757 mmHg 41%
    09:00 +31°C° 0 mm 2 mps 757 mmHg 38%
    10:00 +32°C° 0 mm 2 mps 757 mmHg 36%
    11:00 +33°C° 0 mm 3 mps 757 mmHg 37%
    12:00 +33°C° 0 mm 3 mps 757 mmHg 38%
    13:00 +34°C° 0 mm 4 mps 757 mmHg 39%
    14:00 +33°C° 0 mm 3 mps 757 mmHg 41%
    15:00 +33°C° 0 mm 3 mps 757 mmHg 42%
    16:00 +31°C° 0 mm 2 mps 757 mmHg 44%
    17:00 +30°C° 0 mm 1 mps 757 mmHg 49%
    18:00 +29°C° 0 mm 1 mps 757 mmHg 54%
    19:00 +28°C° 0 mm 1 mps 757 mmHg 60%
    20:00 +25°C° 0 mm 0 mps 757 mmHg 61%
    21:00 +24°C° 0 mm 0 mps 757 mmHg 63%
    22:00 +23°C° 0 mm 0 mps 757 mmHg 64%
    23:00 +23°C° 0 mm 0 mps 757 mmHg 65%

    23 Junio, Domingo

    Tiempo Temperatura Precipitaciones Viento Presión Humedad
    00:00 +22°C° 0 mm 0 mps 757 mmHg 65%
    01:00 +22°C° 0 mm 0 mps 757 mmHg 65%
    02:00 +22°C° 0 mm 0 mps 757 mmHg 65%
    03:00 +24°C° 0 mm 1 mps 757 mmHg 65%
    04:00 +23°C° 0 mm 1 mps 757 mmHg 65%
    05:00 +25°C° 0 mm 1 mps 758 mmHg 61%
    06:00 +26°C° 0 mm 1 mps 758 mmHg 56%
    07:00 +28°C° 0 mm 1 mps 758 mmHg 52%
    08:00 +29°C° 0 mm 1 mps 758 mmHg 49%
    09:00 +30°C° 0 mm 1 mps 758 mmHg 46%
    10:00 +32°C° 0 mm 2 mps 759 mmHg 42%
    11:00 +32°C° 0 mm 2 mps 759 mmHg 43%
    12:00 +32°C° 0 mm 2 mps 759 mmHg 43%
    13:00 +33°C° 0 mm 3 mps 758 mmHg 44%
    14:00 +33°C° 0 mm 3 mps 758 mmHg 45%
    15:00 +33°C° 0 mm 3 mps 758 mmHg 46%
    16:00 +33°C° 0 mm 3 mps 758 mmHg 46%
    17:00 +30°C° 0 mm 2 mps 758 mmHg 51%
    18:00 +29°C° 0 mm 2 mps 758 mmHg 56%
    19:00 +28°C° 0 mm 1 mps 758 mmHg 61%
    20:00 +27°C° 0 mm 1 mps 759 mmHg 63%
    21:00 +26°C° 0 mm 1 mps 759 mmHg 64%
    22:00 +25°C° 0 mm 1 mps 759 mmHg 66%
    23:00 +25°C° 0 mm 1 mps 759 mmHg 67%
    Mostrar más